[[{"header":{"parameterUnit":"m.s-1","parameterCategory":1,"la1":30.2991,"la2":30.254,"lo1":-89.0895,"lo2":-89.0444,"dy":0.0017,"dx":0.0017,"nx":28,"ny":28,"refTime":"2024-12-31T03:00:00:Z","depth":0,"parameterNumber":2,"parameterNumberName":"U-component_of_WINDS"},"data":[0,0,0,0,0,0,0,0,0,0,0,0,0,0,0,0,0,0,0,0,0,0,0,0,0,0,0,0,0,0,0,0,0,0,0,0,0,0,0,0,0,0,0,0,0,0,0,0,0,0,0,0,0,0,0,0,0,0,3.2917,3.2917,0,3.2939,3.2939,3.2939,3.2875,3.2873,3.2871,3.2869,3.2895,3.2897,3.29,0,0,0,0,0,0,0,0,0,0,0,0,0,3.2823,3.2825,3.2917,3.2917,3.2917,3.2939,3.2939,3.2939,3.2876,3.2873,3.2871,3.2869,3.2894,3.2897,3.29,0,0,0,0,0,0,0,0,0,0,0,0,0,3.2856,3.2826,3.2917,3.2888,3.2885,3.2939,3.2939,3.294,3.2876,3.2873,3.287,3.2867,3.2893,3.2897,3.29,3.2983,0,0,3.2912,3.2913,0,0,0,0,0,0,0,0,3.2855,3.286,3.2892,3.289,3.2887,3.2901,3.2915,3.2954,3.2877,3.288,3.2869,3.2866,3.2899,3.2902,3.2913,3.2984,3.2985,3.2912,3.2914,3.2916,3.2917,0,0,0,0,0,0,0,3.2852,3.2859,3.2925,3.2892,3.289,3.2875,3.2877,3.2922,3.2906,3.2879,3.2875,3.2878,3.2898,3.291,3.2913,3.2986,3.2912,3.2915,3.2918,3.2919,3.313,3.3133,0,0,0,0,0,0,3.2853,3.2857,3.2925,3.2926,3.2863,3.2879,3.2881,3.29,3.2905,3.2903,3.2881,3.2875,3.2905,3.2909,3.2914,3.3014,3.2916,3.292,3.2922,3.3126,3.313,3.3134,0,0,0,0,0,0,3.2852,3.286,3.2924,3.289,3.2897,3.2884,3.2906,3.2902,3.2914,3.2906,3.2903,3.2896,3.2903,3.2909,3.2967,3.3014,3.2921,3.2925,3.3122,3.3128,3.3132,3.3213,0,0,0,0,0,0,3.2849,3.286,3.289,3.2892,3.2899,3.2975,3.2909,3.2904,3.292,3.2913,3.292,3.2918,3.2901,3.2962,3.2971,3.3017,3.2928,3.3118,3.3125,3.3131,3.3206,3.322,3.3232,0,0,0,0,0,3.2846,3.2911,3.2892,3.29,3.2937,3.2978,3.2983,3.2961,3.2924,3.2955,3.2951,3.2918,3.3007,3.2968,3.2978,3.3026,3.3115,3.3123,3.313,3.32,3.3217,3.3231,0,0,0,0,0,0,3.2915,3.2911,3.2889,3.2956,3.2968,3.2967,3.3005,3.2979,3.3002,3.2994,3.2967,3.2969,3.3033,3.3035,3.2992,3.3109,3.3055,3.3065,3.3105,3.3121,3.3134,3.3132,3.2931,0,0,0,0,0,3.2938,3.2971,3.2966,3.3026,3.3033,3.3019,3.3036,3.3018,3.3029,3.3034,3.3034,3.3047,3.3079,3.31,3.3128,3.3206,3.3208,3.3244,3.3257,3.3268,3.3277,3.3321,3.3338,3.3159,3.3158,3.3158,0,0,3.2986,3.2988,3.301,3.304,3.3047,3.3084,3.3023,3.3063,3.3091,3.304,3.3096,3.3097,3.311,3.318,3.321,3.3183,3.3327,3.3277,3.3286,3.3289,3.3331,3.3348,3.3363,3.3164,3.3163,3.3162,0,0,3.3092,3.3096,3.3148,3.3157,3.3169,3.3159,3.3172,3.3176,3.3174,3.3229,3.3193,3.3226,3.328,3.3292,3.3305,3.342,3.3391,3.343,3.3498,3.3542,3.3556,3.3568,3.3612,3.3627,3.3438,3.3439,3.3439,0,3.3151,3.3203,3.3178,3.3222,3.3238,3.3194,3.3248,3.3258,3.3279,3.3291,3.326,3.3329,3.3334,3.3408,3.3436,3.3447,3.3463,3.3429,3.3555,3.3568,3.3579,3.362,3.3636,3.3443,3.3443,3.3442,3.3442,0,3.3276,3.3313,3.3354,3.3376,3.3396,3.3444,3.3429,3.3452,3.3434,3.3428,3.3487,3.3493,3.3523,3.3538,3.352,3.361,3.3593,3.356,3.3506,3.3601,3.364,3.3655,3.345,3.3449,3.3447,3.3446,0,0,3.3425,3.3434,3.345,3.3461,3.3472,3.3501,3.3549,3.3578,3.36,3.3617,3.3658,3.3706,3.3676,3.3691,3.3674,3.3712,3.3806,3.3674,3.3674,3.37,3.3909,3.3936,3.3954,3.3787,3.379,3.3792,3.3909,0,3.3532,3.3613,3.3594,3.3676,3.3712,3.3672,3.3715,3.3727,3.3724,3.3756,3.3752,3.3788,3.3743,3.3753,3.3789,3.3787,3.3848,3.3778,3.3827,3.3829,3.3827,3.3974,3.4001,3.411,3.3923,3.3926,3.3928,0,3.3666,3.3689,3.3775,3.3783,3.3798,3.3836,3.3863,3.3893,3.3907,3.3903,3.3921,3.3898,3.3948,3.3893,3.3963,3.3916,3.3935,3.3938,3.3941,3.3946,3.3885,3.3984,3.4144,3.4162,3.3951,3.3949,3.3947,0,3.377,3.3822,3.388,3.389,3.3901,3.393,3.3935,3.3947,3.3967,3.3991,3.4004,3.4034,3.4051,3.4075,3.4061,3.4022,3.4135,3.4078,3.4134,3.4135,3.416,3.4159,3.4328,3.417,3.417,3.417,3.4169,0,3.3892,3.3946,3.3927,3.3963,3.4024,3.4003,3.4064,3.4065,3.4077,3.4114,3.4082,3.4118,3.4097,3.4132,3.4121,3.4183,3.419,3.4189,3.4186,3.4193,3.4193,3.4206,3.4198,3.4174,3.4173,3.4172,3.4171,0,3.4017,3.4006,3.4068,3.4074,3.4077,3.4122,3.4128,3.4163,3.4158,3.4206,3.4216,3.4209,3.4249,3.4237,3.428,3.4274,3.4352,3.4338,3.4347,3.4344,3.4402,3.4397,3.4585,3.461,3.4435,3.4437,3.4438,0,3.4096,3.4137,3.4148,3.4171,3.418,3.4216,3.4237,3.4218,3.4242,3.4263,3.4297,3.4334,3.4362,3.4428,3.4428,3.4461,3.4449,3.4513,3.4454,3.4461,3.4453,3.4451,3.4456,3.4525,3.4527,3.4529,3.453,0,3.4238,3.4232,3.4263,3.4293,3.4319,3.4342,3.4361,3.4382,3.4365,3.4393,3.4434,3.4456,3.4501,3.454,3.4571,3.4578,3.4553,3.4549,3.4564,3.4572,3.4576,3.4577,3.4381,3.4545,3.4543,3.4542,3.4541,3.4541,3.4344,3.438,3.4395,3.4431,3.4445,3.4465,3.4499,3.4499,3.4533,3.4568,3.4555,3.4602,3.4619,3.4658,3.467,3.4708,3.4684,3.4705,3.4711,3.4717,3.4725,3.4569,3.4714,3.4713,3.4713,3.4712,3.4712,0,3.4487,3.4495,3.4529,3.4558,3.4588,3.4561,3.4582,3.4609,3.4651,3.4669,3.4698,3.4747,3.4784,3.4788,3.4824,3.4854,3.4843,3.4864,3.4862,3.4865,3.4744,3.4728,3.4872,3.4872,3.4872,3.4872,3.4872,3.4872,3.4564,3.4625,3.4621,3.4689,3.4697,3.4743,3.4758,3.4777,3.4792,3.4847,3.4878,3.488,3.4893,3.493,3.4965,3.4965,3.4981,3.5007,3.5003,3.4889,3.4873,3.4858,3.4843,3.501,3.501,3.5121,3.5122,3.5123]},{"header":{"parameterUnit":"m.s-1","parameterCategory":1,"la1":30.2991,"la2":30.254,"lo1":-89.0895,"lo2":-89.0444,"dy":0.0017,"dx":0.0017,"nx":28,"ny":28,"refTime":"2024-12-31T03:00:00:Z","depth":0,"parameterNumber":3,"parameterNumberName":"V-component_of_WINDS"},"data":[0,0,0,0,0,0,0,0,0,0,0,0,0,0,0,0,0,0,0,0,0,0,0,0,0,0,0,0,0,0,0,0,0,0,0,0,0,0,0,0,0,0,0,0,0,0,0,0,0,0,0,0,0,0,0,0,0,0,0.2963,0.2965,0,0.3127,0.3129,0.3131,0.3167,0.3166,0.3164,0.3163,0.3336,0.3341,0.3347,0,0,0,0,0,0,0,0,0,0,0,0,0,0.2685,0.2689,0.2963,0.2965,0.2967,0.3127,0.3129,0.3131,0.3167,0.3165,0.3164,0.3163,0.3334,0.3341,0.3347,0,0,0,0,0,0,0,0,0,0,0,0,0,0.2823,0.2691,0.2963,0.3004,0.3009,0.3126,0.3129,0.3132,0.3167,0.3165,0.3164,0.3162,0.3332,0.334,0.3348,0.3437,0,0,0.3375,0.3378,0,0,0,0,0,0,0,0,0.2815,0.2833,0.2996,0.3001,0.3008,0.3125,0.3094,0.3235,0.3168,0.3107,0.3163,0.3161,0.3267,0.3281,0.3316,0.3445,0.3453,0.3375,0.3381,0.3384,0.3387,0,0,0,0,0,0,0,0.2805,0.2826,0.3028,0.2998,0.3005,0.3016,0.3033,0.3121,0.3196,0.3113,0.3116,0.3134,0.327,0.3307,0.332,0.3455,0.3375,0.3383,0.3388,0.3391,0.3667,0.3669,0,0,0,0,0,0,0.2788,0.2818,0.3023,0.3033,0.2905,0.3022,0.3042,0.3089,0.3195,0.3209,0.3136,0.3135,0.3294,0.331,0.3326,0.3438,0.3384,0.3392,0.3397,0.3664,0.3667,0.3669,0,0,0,0,0,0,0.2782,0.2806,0.3016,0.2926,0.2954,0.3029,0.3081,0.3093,0.3131,0.3212,0.3226,0.316,0.3293,0.3314,0.3409,0.3445,0.3396,0.3404,0.3662,0.3665,0.3668,0.3662,0,0,0,0,0,0,0.2774,0.2803,0.2837,0.2927,0.2959,0.3095,0.3084,0.3098,0.3145,0.3146,0.3239,0.3252,0.3293,0.3396,0.3418,0.3455,0.3411,0.3659,0.3663,0.3667,0.3659,0.3664,0.3669,0,0,0,0,0,0.2764,0.283,0.2839,0.2863,0.3002,0.3097,0.3116,0.316,0.3147,0.3183,0.3235,0.3249,0.3437,0.3406,0.343,0.3471,0.3657,0.3662,0.3667,0.3657,0.3663,0.3669,0,0,0,0,0,0,0.2744,0.2842,0.2853,0.295,0.3015,0.3103,0.3149,0.3165,0.3237,0.3235,0.3288,0.3309,0.3401,0.3445,0.3409,0.3563,0.3546,0.3556,0.3531,0.3537,0.3542,0.353,0.3418,0,0,0,0,0,0.2751,0.2819,0.2901,0.2979,0.3011,0.3074,0.3117,0.3145,0.3215,0.3244,0.3303,0.3371,0.3446,0.3494,0.3567,0.3665,0.3686,0.3705,0.371,0.3713,0.3722,0.3778,0.3788,0.3685,0.3685,0.3685,0,0,0.2766,0.2828,0.2868,0.2977,0.303,0.31,0.3097,0.3172,0.3225,0.3255,0.3349,0.3394,0.3474,0.3571,0.3617,0.3611,0.3755,0.372,0.3722,0.3729,0.3784,0.3794,0.3802,0.3689,0.3688,0.3688,0,0,0.283,0.2883,0.2954,0.3007,0.3087,0.3129,0.3145,0.3231,0.3262,0.3356,0.338,0.3445,0.3571,0.3627,0.3673,0.3756,0.3772,0.3778,0.3804,0.3858,0.3866,0.3873,0.3904,0.3915,0.3786,0.3786,0.3786,0,0.284,0.2945,0.2989,0.3062,0.3109,0.3138,0.3211,0.3261,0.3361,0.3394,0.3385,0.3544,0.36,0.3711,0.3731,0.3766,0.3788,0.3769,0.3861,0.3869,0.3877,0.3907,0.3918,0.3786,0.3786,0.3786,0.3786,0,0.2953,0.3026,0.3074,0.3168,0.3221,0.3293,0.3349,0.3397,0.342,0.3463,0.3558,0.3626,0.3713,0.3741,0.3765,0.3855,0.3849,0.385,0.3835,0.3886,0.3915,0.3927,0.3787,0.3787,0.3787,0.3787,0,0,0.3012,0.3128,0.3145,0.3188,0.3278,0.3336,0.341,0.3493,0.3534,0.3602,0.3666,0.3772,0.3773,0.3824,0.3855,0.3902,0.3964,0.3897,0.39,0.3908,0.4069,0.4069,0.4081,0.3975,0.3977,0.3979,0.4063,0,0.3088,0.322,0.326,0.3371,0.3439,0.3467,0.3531,0.3594,0.3635,0.37,0.3746,0.3821,0.3816,0.3847,0.3895,0.3946,0.3998,0.3941,0.4037,0.404,0.4017,0.4096,0.4097,0.4173,0.4074,0.4076,0.4078,0,0.3195,0.3263,0.3379,0.346,0.349,0.3547,0.3627,0.3688,0.376,0.3787,0.3843,0.3869,0.3949,0.3927,0.4038,0.3999,0.404,0.4071,0.4075,0.4088,0.4063,0.4112,0.4198,0.421,0.4096,0.4094,0.4093,0,0.3227,0.3348,0.3433,0.3469,0.3565,0.3605,0.3647,0.3717,0.3764,0.3834,0.3866,0.3944,0.3988,0.4048,0.4096,0.4076,0.4203,0.4185,0.4229,0.4228,0.4256,0.4254,0.4351,0.428,0.4279,0.4279,0.4279,0,0.3309,0.338,0.3449,0.3502,0.3582,0.3628,0.3707,0.3751,0.3812,0.3875,0.3904,0.3962,0.402,0.4087,0.4124,0.4211,0.423,0.4255,0.4265,0.4254,0.425,0.4283,0.4279,0.4282,0.4282,0.4281,0.428,0,0.3359,0.3409,0.3504,0.3586,0.3608,0.3664,0.3735,0.3788,0.383,0.3909,0.393,0.3996,0.4076,0.4128,0.4231,0.4256,0.435,0.4358,0.4326,0.4331,0.4372,0.4368,0.4494,0.4514,0.4428,0.4428,0.4429,0,0.3409,0.3464,0.3551,0.3594,0.3636,0.3706,0.3754,0.3801,0.385,0.3935,0.3978,0.4059,0.4127,0.4253,0.4311,0.4389,0.44,0.4439,0.4412,0.4399,0.4402,0.4399,0.4405,0.4444,0.4444,0.4445,0.4445,0,0.3492,0.3513,0.3581,0.3656,0.3712,0.3775,0.3837,0.3871,0.3929,0.3983,0.4064,0.4116,0.4219,0.43,0.4384,0.4428,0.4448,0.4453,0.4467,0.4458,0.4437,0.445,0.4339,0.445,0.445,0.4449,0.4449,0.4449,0.3545,0.3595,0.3664,0.3738,0.3789,0.3847,0.3901,0.3948,0.4016,0.4103,0.4126,0.4211,0.4281,0.4395,0.4441,0.4509,0.4505,0.4525,0.4531,0.4536,0.4537,0.4424,0.4524,0.4524,0.4524,0.4524,0.4524,0,0.3631,0.3676,0.3743,0.3829,0.3887,0.3897,0.3967,0.4015,0.4089,0.4152,0.4217,0.431,0.4388,0.4452,0.4532,0.4574,0.4585,0.4594,0.4593,0.4603,0.4535,0.4515,0.4584,0.4584,0.4584,0.4584,0.4584,0.4584,0.3683,0.3768,0.3797,0.3908,0.3954,0.4035,0.4074,0.4128,0.4178,0.428,0.4345,0.4384,0.4448,0.4534,0.4606,0.4623,0.4652,0.4659,0.4678,0.4614,0.4608,0.4601,0.4583,0.4665,0.4665,0.474,0.4741,0.4742]}]]